Time,TemperatureF,DewpointF,PressureIn,WindDirection,WindDirectionDegrees,WindSpeedMPH,WindSpeedGustMPH,Humidity,HourlyPrecipIn,Conditions,Clouds,dailyrainin,SoftwareType,DateUTC
2013-01-07 00:03:00,46.0,44.0,30.14,SW,214,0.0,-999.0,93,-99.99,,,-99.99,,2013-01-07 05:03:00,
2013-01-07 00:12:00,46.0,44.0,30.14,SW,214,0.0,-999.0,93,-99.99,,,-99.99,,2013-01-07 05:12:00,
2013-01-07 00:22:00,45.0,43.0,30.14,SW,215,0.0,-999.0,94,-99.99,,,-99.99,,2013-01-07 05:22:00,
2013-01-07 00:33:00,45.0,44.0,30.14,SW,215,0.0,-999.0,95,-99.99,,,-99.99,,2013-01-07 05:33:00,
2013-01-07 00:42:00,45.0,44.0,30.14,SW,215,0.0,-999.0,95,-99.99,,,-99.99,,2013-01-07 05:42:00,
2013-01-07 00:53:00,45.0,44.0,30.14,SW,215,0.0,-999.0,95,-99.99,,,-99.99,,2013-01-07 05:53:00,
2013-01-07 01:02:00,44.0,43.0,30.15,SW,215,0.0,-999.0,95,-99.99,,,-99.99,,2013-01-07 06:02:00,
2013-01-07 01:12:00,44.0,43.0,30.15,SW,215,0.0,-999.0,95,-99.99,,,-99.99,,2013-01-07 06:12:00,
2013-01-07 01:22:00,44.0,43.0,30.15,WNW,303,0.0,-999.0,95,-99.99,,,-99.99,,2013-01-07 06:22:00,
2013-01-07 01:32:00,44.0,43.0,30.15,NW,304,0.0,-999.0,95,-99.99,,,-99.99,,2013-01-07 06:32:00,
2013-01-07 01:42:00,44.0,43.0,30.15,NW,304,0.0,-999.0,95,-99.99,,,-99.99,,2013-01-07 06:42:00,
2013-01-07 01:52:00,44.0,42.0,30.16,NW,323,0.0,-999.0,94,-99.99,,,-99.99,,2013-01-07 06:52:00,
2013-01-07 02:02:00,44.0,42.0,30.16,NW,307,0.0,-999.0,94,-99.99,,,-99.99,,2013-01-07 07:02:00,
2013-01-07 02:12:00,44.0,42.0,30.16,NW,307,0.0,-999.0,94,-99.99,,,-99.99,,2013-01-07 07:12:00,
2013-01-07 02:22:00,44.0,42.0,30.16,NW,309,0.0,-999.0,93,-99.99,,,-99.99,,2013-01-07 07:22:00,
2013-01-07 02:33:00,43.0,41.0,30.16,WNW,291,0.0,-999.0,92,-99.99,,,-99.99,,2013-01-07 07:33:00,
2013-01-07 02:42:00,43.0,41.0,30.16,WNW,291,0.0,-999.0,92,-99.99,,,-99.99,,2013-01-07 07:42:00,
2013-01-07 02:53:00,43.0,41.0,30.16,NW,324,0.0,-999.0,92,-99.99,,,-99.99,,2013-01-07 07:53:00,
2013-01-07 03:03:00,43.0,41.0,30.16,NNW,338,1.0,-999.0,91,-99.99,,,-99.99,,2013-01-07 08:03:00,
2013-01-07 03:12:00,43.0,41.0,30.16,NNW,338,1.0,-999.0,91,-99.99,,,-99.99,,2013-01-07 08:12:00,
2013-01-07 03:22:00,43.0,41.0,30.17,North,349,0.0,-999.0,91,-99.99,,,-99.99,,2013-01-07 08:22:00,
2013-01-07 03:32:00,43.0,41.0,30.18,NW,325,0.0,-999.0,92,-99.99,,,-99.99,,2013-01-07 08:32:00,
2013-01-07 03:42:00,43.0,41.0,30.18,NW,325,0.0,-999.0,92,-99.99,,,-99.99,,2013-01-07 08:42:00,
2013-01-07 03:53:00,43.0,41.0,30.17,NNW,334,1.0,-999.0,91,-99.99,,,-99.99,,2013-01-07 08:53:00,
2013-01-07 04:02:00,43.0,41.0,30.17,NNW,333,0.0,-999.0,91,-99.99,,,-99.99,,2013-01-07 09:02:00,
2013-01-07 04:12:00,43.0,41.0,30.17,NNW,333,0.0,-999.0,91,-99.99,,,-99.99,,2013-01-07 09:12:00,
2013-01-07 04:22:00,43.0,40.0,30.17,NNW,336,0.0,-999.0,90,-99.99,,,-99.99,,2013-01-07 09:22:00,
2013-01-07 04:32:00,42.0,39.0,30.18,NNW,328,0.0,-999.0,90,-99.99,,,-99.99,,2013-01-07 09:32:00,
2013-01-07 04:42:00,42.0,39.0,30.18,NNW,328,0.0,-999.0,90,-99.99,,,-99.99,,2013-01-07 09:42:00,
2013-01-07 04:53:00,42.0,39.0,30.17,NW,324,0.0,-999.0,90,-99.99,,,-99.99,,2013-01-07 09:53:00,
2013-01-07 05:02:00,41.0,38.0,30.19,NW,323,0.0,-999.0,90,-99.99,,,-99.99,,2013-01-07 10:02:00,
2013-01-07 05:12:00,41.0,38.0,30.20,NW,323,0.0,-999.0,90,-99.99,,,-99.99,,2013-01-07 10:12:00,
2013-01-07 05:22:00,41.0,38.0,30.20,NW,323,0.0,-999.0,90,-99.99,,,-99.99,,2013-01-07 10:22:00,
2013-01-07 05:32:00,41.0,38.0,30.20,NW,324,0.0,-999.0,90,-99.99,,,-99.99,,2013-01-07 10:32:00,
2013-01-07 05:42:00,41.0,38.0,30.20,NW,324,0.0,-999.0,90,-99.99,,,-99.99,,2013-01-07 10:42:00,
2013-01-07 05:52:00,41.0,38.0,30.20,NW,324,0.0,-999.0,90,-99.99,,,-99.99,,2013-01-07 10:52:00,
2013-01-07 06:02:00,41.0,38.0,30.22,NW,324,0.0,-999.0,90,-99.99,,,-99.99,,2013-01-07 11:02:00,
2013-01-07 06:12:00,41.0,38.0,30.22,NW,324,0.0,-999.0,90,-99.99,,,-99.99,,2013-01-07 11:12:00,
2013-01-07 06:23:00,41.0,38.0,30.22,NW,324,0.0,-999.0,89,-99.99,,,-99.99,,2013-01-07 11:23:00,
2013-01-07 06:33:00,41.0,38.0,30.22,NW,323,0.0,-999.0,89,-99.99,,,-99.99,,2013-01-07 11:33:00,
2013-01-07 06:43:00,41.0,38.0,30.22,NW,323,0.0,-999.0,89,-99.99,,,-99.99,,2013-01-07 11:43:00,
2013-01-07 06:53:00,41.0,38.0,30.22,NW,324,0.0,-999.0,89,-99.99,,,-99.99,,2013-01-07 11:53:00,
2013-01-07 07:03:00,40.0,37.0,30.23,NW,324,0.0,-999.0,90,-99.99,,,-99.99,,2013-01-07 12:03:00,
2013-01-07 07:12:00,40.0,38.0,30.23,NW,324,0.0,-999.0,91,-99.99,,,-99.99,,2013-01-07 12:12:00,
2013-01-07 07:22:00,40.0,38.0,30.23,NW,324,0.0,-999.0,91,-99.99,,,-99.99,,2013-01-07 12:22:00,
2013-01-07 07:33:00,40.0,38.0,30.25,NW,324,0.0,-999.0,91,-99.99,,,-99.99,,2013-01-07 12:33:00,
2013-01-07 07:43:00,40.0,38.0,30.25,NW,324,0.0,-999.0,91,-99.99,,,-99.99,,2013-01-07 12:43:00,
2013-01-07 07:53:00,41.0,38.0,30.25,NW,323,0.0,-999.0,90,-99.99,,,-99.99,,2013-01-07 12:53:00,
2013-01-07 08:02:00,41.0,38.0,30.27,NW,323,0.0,-999.0,90,-99.99,,,-99.99,,2013-01-07 13:02:00,
2013-01-07 08:12:00,41.0,38.0,30.27,NW,323,0.0,-999.0,90,-99.99,,,-99.99,,2013-01-07 13:12:00,
2013-01-07 08:23:00,42.0,39.0,30.27,NW,324,0.0,-999.0,89,-99.99,,,-99.99,,2013-01-07 13:23:00,
2013-01-07 08:33:00,43.0,39.0,30.28,NW,324,0.0,-999.0,87,-99.99,,,-99.99,,2013-01-07 13:33:00,
2013-01-07 08:42:00,43.0,39.0,30.28,NW,324,0.0,-999.0,87,-99.99,,,-99.99,,2013-01-07 13:42:00,
2013-01-07 08:53:00,44.0,39.0,30.29,NW,318,0.0,-999.0,84,-99.99,,,-99.99,,2013-01-07 13:53:00,
2013-01-07 09:03:00,45.0,39.0,30.29,WNW,286,0.0,-999.0,80,-99.99,,,-99.99,,2013-01-07 14:03:00,
2013-01-07 09:12:00,45.0,39.0,30.29,WNW,286,0.0,-999.0,80,-99.99,,,-99.99,,2013-01-07 14:12:00,
2013-01-07 09:23:00,45.0,39.0,30.29,WNW,286,0.0,-999.0,80,-99.99,,,-99.99,,2013-01-07 14:23:00,
2013-01-07 09:33:00,47.0,39.0,30.31,NW,316,0.0,-999.0,74,-99.99,,,-99.99,,2013-01-07 14:33:00,
2013-01-07 09:43:00,47.0,39.0,30.31,NW,316,0.0,-999.0,74,-99.99,,,-99.99,,2013-01-07 14:43:00,
2013-01-07 09:53:00,47.0,39.0,30.31,NW,316,0.0,-999.0,74,-99.99,,,-99.99,,2013-01-07 14:53:00,
2013-01-07 10:03:00,49.0,39.0,30.33,ENE,66,0.0,-999.0,69,-99.99,,,-99.99,,2013-01-07 15:03:00,
2013-01-07 10:12:00,49.0,39.0,30.33,ENE,66,0.0,-999.0,69,-99.99,,,-99.99,,2013-01-07 15:12:00,
2013-01-07 10:23:00,50.0,39.0,30.34,North,349,1.0,-999.0,66,-99.99,,,-99.99,,2013-01-07 15:23:00,
2013-01-07 10:33:00,51.0,38.0,30.34,East,98,1.0,-999.0,62,-99.99,,,-99.99,,2013-01-07 15:33:00,
2013-01-07 10:43:00,51.0,38.0,30.34,East,98,1.0,-999.0,62,-99.99,,,-99.99,,2013-01-07 15:43:00,
2013-01-07 10:53:00,53.0,39.0,30.34,WNW,288,0.0,-999.0,59,-99.99,,,-99.99,,2013-01-07 15:53:00,
2013-01-07 11:02:00,54.0,39.0,30.33,South,177,2.0,-999.0,57,-99.99,,,-99.99,,2013-01-07 16:02:00,
2013-01-07 11:12:00,54.0,39.0,30.33,South,177,2.0,-999.0,57,-99.99,,,-99.99,,2013-01-07 16:12:00,
2013-01-07 11:22:00,54.0,39.0,30.32,North,350,3.0,-999.0,56,-99.99,,,-99.99,,2013-01-07 16:22:00,
2013-01-07 11:33:00,54.0,38.0,30.32,NNW,346,1.0,-999.0,55,-99.99,,,-99.99,,2013-01-07 16:33:00,
2013-01-07 11:43:00,54.0,38.0,30.32,NNW,346,1.0,-999.0,55,-99.99,,,-99.99,,2013-01-07 16:43:00,
2013-01-07 11:53:00,55.0,39.0,30.32,East,87,1.0,-999.0,54,-99.99,,,-99.99,,2013-01-07 16:53:00,
2013-01-07 12:03:00,55.0,39.0,30.31,ENE,78,1.0,-999.0,54,-99.99,,,-99.99,,2013-01-07 17:03:00,
2013-01-07 12:12:00,55.0,39.0,30.31,ENE,78,1.0,-999.0,54,-99.99,,,-99.99,,2013-01-07 17:12:00,
2013-01-07 12:23:00,55.0,40.0,30.31,NE,50,1.0,-999.0,57,-99.99,,,-99.99,,2013-01-07 17:23:00,
2013-01-07 12:33:00,55.0,39.0,30.30,SE,126,1.0,-999.0,54,-99.99,,,-99.99,,2013-01-07 17:33:00,
2013-01-07 12:42:00,55.0,39.0,30.30,SE,126,1.0,-999.0,54,-99.99,,,-99.99,,2013-01-07 17:42:00,
2013-01-07 12:53:00,56.0,39.0,30.29,NNE,32,1.0,-999.0,53,-99.99,,,-99.99,,2013-01-07 17:53:00,
2013-01-07 13:03:00,57.0,40.0,30.29,NNW,333,1.0,-999.0,52,-99.99,,,-99.99,,2013-01-07 18:03:00,
2013-01-07 13:12:00,57.0,40.0,30.29,NNW,333,1.0,-999.0,52,-99.99,,,-99.99,,2013-01-07 18:12:00,
2013-01-07 13:23:00,57.0,40.0,30.29,NNW,330,3.0,-999.0,52,-99.99,,,-99.99,,2013-01-07 18:23:00,
2013-01-07 13:33:00,57.0,40.0,30.29,NNW,330,3.0,-999.0,52,-99.99,,,-99.99,,2013-01-07 18:33:00,
2013-01-07 13:42:00,57.0,40.0,30.28,NW,321,1.0,-999.0,52,-99.99,,,-99.99,,2013-01-07 18:42:00,
2013-01-07 13:53:00,57.0,40.0,30.28,NW,321,1.0,-999.0,52,-99.99,,,-99.99,,2013-01-07 18:53:00,
2013-01-07 14:03:00,57.0,40.0,30.28,South,172,1.0,-999.0,53,-99.99,,,-99.99,,2013-01-07 19:03:00,
2013-01-07 14:12:00,57.0,40.0,30.28,South,172,1.0,-999.0,53,-99.99,,,-99.99,,2013-01-07 19:12:00,
2013-01-07 14:23:00,57.0,40.0,30.27,WSW,238,1.0,-999.0,52,-99.99,,,-99.99,,2013-01-07 19:23:00,
2013-01-07 14:33:00,57.0,39.0,30.26,ESE,105,1.0,-999.0,51,-99.99,,,-99.99,,2013-01-07 19:33:00,
2013-01-07 14:43:00,57.0,39.0,30.26,ESE,105,1.0,-999.0,51,-99.99,,,-99.99,,2013-01-07 19:43:00,
2013-01-07 14:53:00,57.0,40.0,30.27,NW,313,1.0,-999.0,52,-99.99,,,-99.99,,2013-01-07 19:53:00,
2013-01-07 15:03:00,57.0,40.0,30.27,NW,313,1.0,-999.0,52,-99.99,,,-99.99,,2013-01-07 20:03:00,
2013-01-07 15:12:00,57.0,40.0,30.27,NW,313,1.0,-999.0,52,-99.99,,,-99.99,,2013-01-07 20:12:00,
2013-01-07 15:23:00,56.0,39.0,30.28,South,173,0.0,-999.0,52,-99.99,,,-99.99,,2013-01-07 20:23:00,
2013-01-07 15:33:00,56.0,39.0,30.28,NNW,346,1.0,-999.0,53,-99.99,,,-99.99,,2013-01-07 20:33:00,
2013-01-07 15:43:00,56.0,39.0,30.28,NNW,346,1.0,-999.0,53,-99.99,,,-99.99,,2013-01-07 20:43:00,
2013-01-07 15:53:00,56.0,40.0,30.29,NW,313,1.0,-999.0,54,-99.99,,,-99.99,,2013-01-07 20:53:00,
2013-01-07 16:03:00,55.0,39.0,30.29,NNW,342,0.0,-999.0,55,-99.99,,,-99.99,,2013-01-07 21:03:00,
2013-01-07 16:12:00,55.0,39.0,30.29,NNW,342,0.0,-999.0,55,-99.99,,,-99.99,,2013-01-07 21:12:00,
2013-01-07 16:23:00,55.0,40.0,30.29,NW,325,0.0,-999.0,57,-99.99,,,-99.99,,2013-01-07 21:23:00,
2013-01-07 16:33:00,55.0,40.0,30.30,NW,325,0.0,-999.0,57,-99.99,,,-99.99,,2013-01-07 21:33:00,
2013-01-07 16:43:00,55.0,40.0,30.30,NW,325,0.0,-999.0,57,-99.99,,,-99.99,,2013-01-07 21:43:00,
2013-01-07 16:53:00,54.0,40.0,30.31,NW,323,0.0,-999.0,58,-99.99,,,-99.99,,2013-01-07 21:53:00,
2013-01-07 17:03:00,54.0,40.0,30.31,NW,323,0.0,-999.0,58,-99.99,,,-99.99,,2013-01-07 22:03:00,
2013-01-07 17:12:00,54.0,40.0,30.31,NW,323,0.0,-999.0,58,-99.99,,,-99.99,,2013-01-07 22:12:00,
2013-01-07 17:23:00,53.0,37.0,30.31,NW,323,0.0,-999.0,55,-99.99,,,-99.99,,2013-01-07 22:23:00,
2013-01-07 17:33:00,52.0,37.0,30.31,SSW,193,0.0,-999.0,56,-99.99,,,-99.99,,2013-01-07 22:33:00,
2013-01-07 17:43:00,52.0,37.0,30.31,SSW,193,0.0,-999.0,56,-99.99,,,-99.99,,2013-01-07 22:43:00,
2013-01-07 17:53:00,51.0,37.0,30.32,SSW,192,0.0,-999.0,58,-99.99,,,-99.99,,2013-01-07 22:53:00,
2013-01-07 18:02:00,50.0,38.0,30.32,SSW,193,0.0,-999.0,62,-99.99,,,-99.99,,2013-01-07 23:02:00,
2013-01-07 18:12:00,50.0,38.0,30.32,SSW,193,0.0,-999.0,62,-99.99,,,-99.99,,2013-01-07 23:12:00,
2013-01-07 18:22:00,49.0,38.0,30.32,SSW,192,0.0,-999.0,65,-99.99,,,-99.99,,2013-01-07 23:22:00,
2013-01-07 18:33:00,49.0,38.0,30.32,SSW,192,0.0,-999.0,65,-99.99,,,-99.99,,2013-01-07 23:33:00,
2013-01-07 18:43:00,49.0,38.0,30.32,SSW,192,0.0,-999.0,65,-99.99,,,-99.99,,2013-01-07 23:43:00,
2013-01-07 18:53:00,49.0,38.0,30.33,South,191,0.0,-999.0,65,-99.99,,,-99.99,,2013-01-07 23:53:00,
2013-01-07 19:03:00,49.0,39.0,30.34,South,191,0.0,-999.0,67,-99.99,,,-99.99,,2013-01-08 00:03:00,
2013-01-07 19:12:00,49.0,39.0,30.34,South,191,0.0,-999.0,67,-99.99,,,-99.99,,2013-01-08 00:12:00,
2013-01-07 19:22:00,48.0,38.0,30.34,SSW,192,0.0,-999.0,69,-99.99,,,-99.99,,2013-01-08 00:22:00,
2013-01-07 19:33:00,47.0,38.0,30.34,SSW,192,0.0,-999.0,70,-99.99,,,-99.99,,2013-01-08 00:33:00,
2013-01-07 19:43:00,47.0,38.0,30.34,SSW,192,0.0,-999.0,70,-99.99,,,-99.99,,2013-01-08 00:43:00,
2013-01-07 19:53:00,47.0,38.0,30.34,SSW,192,0.0,-999.0,71,-99.99,,,-99.99,,2013-01-08 00:53:00,
2013-01-07 20:03:00,47.0,38.0,30.34,SSW,192,0.0,-999.0,71,-99.99,,,-99.99,,2013-01-08 01:03:00,
2013-01-07 20:12:00,47.0,38.0,30.34,SSW,192,0.0,-999.0,71,-99.99,,,-99.99,,2013-01-08 01:12:00,
2013-01-07 20:22:00,46.0,39.0,30.35,SSW,192,0.0,-999.0,75,-99.99,,,-99.99,,2013-01-08 01:22:00,
2013-01-07 20:33:00,45.0,38.0,30.35,SSW,192,0.0,-999.0,76,-99.99,,,-99.99,,2013-01-08 01:33:00,
2013-01-07 20:42:00,45.0,38.0,30.35,SSW,192,0.0,-999.0,76,-99.99,,,-99.99,,2013-01-08 01:42:00,
2013-01-07 20:52:00,45.0,39.0,30.34,SSW,192,0.0,-999.0,78,-99.99,,,-99.99,,2013-01-08 01:52:00,
2013-01-07 21:02:00,45.0,39.0,30.34,SSW,192,0.0,-999.0,78,-99.99,,,-99.99,,2013-01-08 02:02:00,
2013-01-07 21:12:00,45.0,39.0,30.34,SSW,192,0.0,-999.0,78,-99.99,,,-99.99,,2013-01-08 02:12:00,
2013-01-07 21:22:00,44.0,39.0,30.33,SSW,192,0.0,-999.0,81,-99.99,,,-99.99,,2013-01-08 02:22:00,
2013-01-07 21:33:00,44.0,39.0,30.33,SSW,192,0.0,-999.0,81,-99.99,,,-99.99,,2013-01-08 02:33:00,
2013-01-07 21:43:00,44.0,39.0,30.33,SSW,192,0.0,-999.0,81,-99.99,,,-99.99,,2013-01-08 02:43:00,
2013-01-07 21:53:00,44.0,38.0,30.33,SSW,192,0.0,-999.0,80,-99.99,,,-99.99,,2013-01-08 02:53:00,
2013-01-07 22:03:00,44.0,38.0,30.33,SSW,192,0.0,-999.0,80,-99.99,,,-99.99,,2013-01-08 03:03:00,
2013-01-07 22:12:00,44.0,38.0,30.33,SSW,192,0.0,-999.0,80,-99.99,,,-99.99,,2013-01-08 03:12:00,
2013-01-07 22:22:00,44.0,38.0,30.33,SSW,192,0.0,-999.0,80,-99.99,,,-99.99,,2013-01-08 03:22:00,
2013-01-07 22:32:00,45.0,39.0,30.32,SSW,192,0.0,-999.0,80,-99.99,,,-99.99,,2013-01-08 03:32:00,
2013-01-07 22:43:00,45.0,39.0,30.32,SSW,192,0.0,-999.0,80,-99.99,,,-99.99,,2013-01-08 03:43:00,
2013-01-07 22:53:00,45.0,39.0,30.32,SSW,192,0.0,-999.0,80,-99.99,,,-99.99,,2013-01-08 03:53:00,
2013-01-07 23:02:00,45.0,39.0,30.32,SSW,192,0.0,-999.0,80,-99.99,,,-99.99,,2013-01-08 04:02:00,
2013-01-07 23:12:00,45.0,39.0,30.32,SSW,192,0.0,-999.0,80,-99.99,,,-99.99,,2013-01-08 04:12:00,
2013-01-07 23:22:00,45.0,39.0,30.32,SSW,192,0.0,-999.0,80,-99.99,,,-99.99,,2013-01-08 04:22:00,
2013-01-07 23:32:00,45.0,40.0,30.32,SSW,192,0.0,-999.0,81,-99.99,,,-99.99,,2013-01-08 04:32:00,
2013-01-07 23:42:00,45.0,40.0,30.32,SSW,192,0.0,-999.0,81,-99.99,,,-99.99,,2013-01-08 04:42:00,
2013-01-07 23:52:00,45.0,40.0,30.31,SSW,192,0.0,-999.0,82,-99.99,,,-99.99,,2013-01-08 04:52:00,